Weather Roundup
Issued by NWS Springfield, MO

Home | Current Version | Previous Version | Text Only | Print | Product List | Glossary On
Versions: 1 2 3 4 5 6 7 8 9 10 11 12 13 14 15 16 17 18 19 20 21 22 23 24 25 26 27 28 29 30 31 32 33 34 35 36 37 38 39 40 41 42 43 44 45 46 47 48 49 50
000
NZUS99 KSGF 220307
HRRSGF

HOURLY WEATHER
NATIONAL WEATHER SERVICE SPRINGFIELD MO
900 PM CST SAT JAN 21 2017

......SGF CWA......

CITY           SKY/WX    TMP DP  RH WIND       PRES   REMARKS
SPRINGFIELD    LGT RAIN  53  49  86 NE5       29.47F
JOPLIN         CLOUDY    53  48  83 NE6       29.45S
WEST PLAINS    CLOUDY    58  51  78 SE3       29.53S
ROLLA          CLOUDY    53  39  59 NE6       29.52S
OSAGE BEACH    CLOUDY    56  38  50 NE7       29.52S
BRANSON        CLOUDY    50  50 100 NE3       29.47F

......SURROUNDING SGF CWA......

CITY           SKY/WX    TMP DP  RH WIND       PRES   REMARKS
CHANUTE        CLOUDY    53  42  66 NE7       29.45S
PARSONS        CLOUDY    50  44  80 E7        29.44S
COFFEYVILLE    CLOUDY    47  43  86 E7        29.43S
EMPORIA        LGT RAIN  45  44  97 E7        29.49R
GROVE OK       CLOUDY    55  50  82 E3        29.44S
ROGERS AR      CLOUDY    52  48  86 E10       29.45S
SILOAM SPRINGS MOCLDY    52  46  82 CALM      29.45R
HARRISON AR    MOCLDY    51  50  96 SE7       29.49F
NEAR YELLVILLE CLOUDY    57  45  62 SE5       29.49R

......KANSAS AND MISSOURI......

CITY           SKY/WX    TMP DP  RH WIND       PRES   REMARKS
KANSAS CTY INT CLOUDY    47  41  80 NE6       29.51F
DOWNTOWN KC    CLOUDY    49  44  83 E3        29.52R
COLUMBIA       CLOUDY    53  40  61 NE10      29.53S
SEDALIA        CLOUDY    51  42  71 N5        29.53S
ST JOSEPH      CLOUDY    39  39 100 N3        29.54S
ST LOUIS       CLOUDY    54  40  59 CALM      29.56R
SPIRIT OF STL  MOCLDY    49  42  77 CALM      29.55R
KIRKSVILLE     FOG       36  35  96 N3        29.56S VSB 1/4
WICHITA        CLOUDY    48  41  76 E9        29.43S
TOPEKA         CLOUDY    46  43  89 NW3       29.50F
OLATHE         CLOUDY    47  44  90 E7        29.51F

......TENNESSEE......

CITY           SKY/WX    TMP DP  RH WIND       PRES   REMARKS
MEMPHIS        CLOUDY    63  53  70 E9        29.51F
NASHVILLE      CLOUDY    59  49  69 SE6       29.62F

......ARKANSAS.......

CITY           SKY/WX    TMP DP  RH WIND       PRES   REMARKS
FAYETTEVILLE   PTCLDY    45  45 100 CALM      29.44S
FT SMITH       TSTM      57  54  89 W5        29.43S FOG
LITTLE ROCK    CLOUDY    59  58  96 SE7       29.45F

......OKLAHOMA.......

CITY           SKY/WX    TMP DP  RH WIND       PRES   REMARKS
TULSA          PTCLDY    52  45  77 SE5       29.40S
PONCA CITY     MOCLDY    51  38  60 E12       29.38F
MCALESTER      PTCLDY    57  53  86 S5        29.40S
OKLAHOMA CITY  CLOUDY    54  41  61 SE13      29.34F

......IOWA............

CITY           SKY/WX    TMP DP  RH WIND       PRES   REMARKS
DES MOINES     PTCLDY    37  34  89 CALM      29.55R
QUAD CITIES    CLOUDY    43  39  86 SW5       29.58R

......ILLINOIS........

CITY           SKY/WX    TMP DP  RH WIND       PRES   REMARKS
QUINCY         CLOUDY    44  42  93 NE8       29.57R
CHICAGO        PTCLDY    44  41  89 NW6       29.57R




USA.gov is the U.S. government's official web portal to all federal, state and local government web resources and services.